Tracking 26492 objects as of 8-Dec-2022
HD Live streaming from Space Station
objects crossing your sky now

STARLINK-4441

Track STARLINK-4441 now!
10-day predictions
STARLINK-4441 is classified as:


NORAD ID: 53510
Int'l Code: 2022-099AX
Perigee: 569.3 km
Apogee: 571.0 km
Inclination: 97.7 °
Period: 95.9 minutes
Semi major axis: 6941 km
RCS: Unknown
Launch date: August 12, 2022
Source: United States (US)
Launch site: AIR FORCE WESTERN TEST RANGE (AFWTR)
aabbcc
Your satellite tracking list
Your tracking list is empty




NASA's NSSDC Master Catalog

Two Line Element Set (TLE):
1 53510U 22099AX  22341.78429460 -.00000363  00000-0 -23694-4 0  9990
2 53510  97.6523 100.6049 0001198 346.8708  13.2485 15.01259948 17761
Source of the keplerian elements: AFSPC